Location: Madrid
(40.4000°N, 3.6830°W)
Time: 00:29:30
(UTC+02:00)

ISS - Pass Details

Date: 16 July 2019
Orbit: 409 x 418 km, 51.6° (Epoch: 22 July)

Event Time Altitude Azimuth Distance (km) Brightness Sun altitude
Rises 04:42:10 0° 312° (NW) 2,346 0.1 -20.0°
Reaches altitude 10° 04:44:41 10° 331° (NNW) 1,481 -0.7 -19.7°
Maximum altitude 04:47:10 19° 20° (NNE) 1,047 -0.9 -19.4°
Drops below altitude 10° 04:49:38 10° 68° (ENE) 1,475 -0.1 -19.1°
Sets 04:52:07 0° 87° (E) 2,333 0.6 -18.9°
